Regional Weather Roundup
Issued by NWS Albany, NY

Current Version | Previous Version | Text Only | Print | Product List | Glossary On
Versions: 1 2 3 4 5 6 7 8 9 10 11 12 13 14 15 16 17 18 19 20 21 22 23 24 25 26 27
000
ASUS41 KALY 220710
RWRALY

NEW YORK STATE HOURLY WEATHER ROUNDUP
NATIONAL WEATHER SERVICE ALBANY NY
300 AM EDT SUN MAY 22 2022

NOTE: "FAIR" INDICATES FEW OR NO CLOUDS BELOW 12,000 FEET WITH NO
SIGNIFICANT WEATHER AND/OR NO OBSTRUCTIONS TO VISIBILITY.

NYZ032-033-038>043-046>054-057>066-NYZ062>081-082-084-220800-
EAST


CITY           SKY/WX    TMP DP  RH WIND       PRES   REMARKS
ALBANY         PTCLDY    72  65  78 VRB3      29.98F
GLENS FALLS    CLEAR     66  65  96 SE3       29.95F
POUGHKEEPSIE   CLEAR     68  65  90 CALM      29.99R
NEWBURGH       CLEAR     73  68  83 W5        30.01R
MONTGOMERY     CLEAR     64  63  96 CALM      30.00S
WHITE PLAINS   CLEAR     68  64  87 CALM      30.02S
ISLIP          CLEAR     65  62  90 SW5       30.03S
NEW YORK CITY  PTCLDY    79  64  60 SW8       30.00F
CENTRAL PARK   CLEAR     77  65  66 VRB3      30.03F
$$

NYZ005>009-017-018-044>046-055-056-220800-
CENTRAL


CITY           SKY/WX    TMP DP  RH WIND       PRES   REMARKS
FULTON         MOCLDY    63  61  93 NW3       30.00R FOG
SYRACUSE       CLOUDY    64  60  87 E5        29.97F
ROME           PTCLDY    64  60  87 E3        30.01R
ELMIRA         MOCLDY    64  60  87 W3        30.01F
BINGHAMTON     MOCLDY    66  59  78 E3        30.05F
MONTICELLO     PTCLDY    65  64  97 CALM      30.05F
$$

NYZ026>034-041>043-087-220800-
NORTH


CITY           SKY/WX    TMP DP  RH WIND       PRES   REMARKS
WATERTOWN      CLOUDY    61  60  97 S5        29.97S FOG
FORT DRUM      NOT AVBL
OGDENSBURG     MOCLDY    63  63 100 S6        29.91F
MASSENA        PTCLDY    64  63  96 S12       29.96F
SARANAC LAKE   PTCLDY    60  60 100 W3        30.00S FOG
PLATTSBURGH    PTCLDY    66  62  87 E6        29.95S
$$

NYZ001>004-010>016-019>021-085-220800-
WEST


CITY           SKY/WX    TMP DP  RH WIND       PRES   REMARKS
NIAGARA FALLS  CLOUDY    65  62  90 E5        29.97F
BUFFALO        CLOUDY    65  64  97 CALM      29.99F
DUNKIRK        PTCLDY    65  62  90 S7        30.00S
JAMESTOWN      MOCLDY    61  60  97 S7        30.05S
WELLSVILLE     MOCLDY    65  57  75 S7        30.07S
ROCHESTER      CLOUDY    61  59  93 E5        30.00F
PENN YAN       MOCLDY    64  32  30 SW5       30.01S
$$

             KEY
       WCI = WIND CHILL INDEX
       VSB = VISIBILITY
       HX  = HEAT INDEX
$$



USA.gov is the U.S. government's official web portal to all federal, state and local government web resources and services.